{"data":{"norad_id":58018,"intl_designator":"2023-155C","name":"ANSER FOLLOWER 2","alt_names":[],"object_type":"PAYLOAD","status":"ACTIVE","operator":null,"country":"SPN","launch_date":"2023-10-09","launch_site_code":"FRGUI","launch_vehicle":null,"mission":null,"orbit_class":"UNKNOWN","rcs_meters":null,"size_class":null,"mass_kg":null,"dimensions":null,"purposes":[],"wikipedia_slug":null,"has_3d_model":false,"image_url":null,"decayed_at":null,"tle_current":{"epoch":"2026-09-21T00:08:03.734592Z","epoch_age_seconds":190114,"freshness":"STALE","line1":"1 58018U 23155C   26264.00559878  .00014760  00000+0  19744-3 0  9995","line2":"2 58018  97.5483 358.0825 0002168 132.1972 227.9468 15.58134999163825","mean_motion":15.58134999,"eccentricity":0.0002168,"inclination_deg":97.5483,"raan_deg":358.0825,"arg_perigee_deg":132.1972,"mean_anomaly_deg":227.9468,"bstar":0.00019744,"rev_number":16382,"period_min":92.418179485358,"perigee_km":391.58686292221,"apogee_km":394.52285171154,"semimajor_km":6771.1918573169,"source":"CELESTRAK","updated_at":"2026-09-22T09:00:26.440191Z"}}}